User: anonymous   Login
Location: Plymouth
(43.7570°N, 71.6890°W)
Time: 22:43:26
(UTC-04:00)
Language:

Cosmos 2016 Rocket - Orbit

View from above orbital plane
View from above orbital plane
View from above satellite
View from above satellite

Ground track
Ground track

The orbit data is extracted from the following two-line orbital elements,

1 19922U 89028B   16177.91026119 -.00000010  00000-0 -25486-4 0  9993
2 19922  82.9583 331.0691 0036992 161.7041   2.5077 13.77178922368197
Epoch (UTC): 25 June 2016 21:50:46
Eccentricity: 0.0036992
inclination: 82.9583°
perigee height: 947 km
apogee height: 1001 km
right ascension of ascending node: 331.0691°
argument of perigee: 161.7041°
revolutions per day: 13.77178922
mean anomaly at epoch: 2.5077°
orbit number at epoch: 36819

The dashed part of the orbit path shows where the satellite is in the earth's shadow,  

DLR